UKV6397 YMML-YMER

Flight info

Callsign UKV6397
Flight time 1h 3m
Altitude 19000
Route CORRS DCT ANGEX DCT UNSIG
Aircraft AT76/M-SDFGIRY/S

Departure

Time 2026-05-05 18:19
Airport Melbourne Airport (YMML)

Arrival

Time 2026-05-05 19:22
Airport Merimbula Airport (YMER)
Time Latitude Longitude Altitude Speed Heading
2026-05-05 18:02 -37.67709 144.84478 366 ft 0 kts 81°
2026-05-05 18:12 -37.67710 144.84474 366 ft 3 kts 81°
2026-05-05 18:13 -37.67713 144.84441 370 ft 3 kts 81°
2026-05-05 18:13 -37.67716 144.84414 365 ft 4 kts 88°
2026-05-05 18:13 -37.67714 144.84381 365 ft 4 kts 114°
2026-05-05 18:13 -37.67699 144.84362 370 ft 3 kts 171°
2026-05-05 18:14 -37.67682 144.84359 366 ft 0 kts 171°
2026-05-05 18:17 -37.67684 144.84359 366 ft 2 kts 171°
2026-05-05 18:17 -37.67729 144.84368 370 ft 10 kts 171°
2026-05-05 18:17 -37.67810 144.84349 360 ft 14 kts 217°
2026-05-05 18:17 -37.67857 144.84246 360 ft 14 kts 259°
2026-05-05 18:18 -37.67872 144.84124 358 ft 14 kts 261°
2026-05-05 18:18 -37.67861 144.84004 352 ft 13 kts 304°
2026-05-05 18:18 -37.67799 144.83954 361 ft 10 kts 348°
2026-05-05 18:18 -37.67773 144.83948 360 ft 20 kts 352°
2026-05-05 18:19 -37.67405 144.83879 366 ft 86 kts 350°
2026-05-05 18:19 -37.66659 144.83747 556 ft 116 kts 352°
2026-05-05 18:19 -37.65866 144.83634 1084 ft 122 kts 352°
2026-05-05 18:19 -37.65027 144.83510 1689 ft 124 kts 355°
2026-05-05 18:20 -37.64150 144.83388 2279 ft 128 kts 348°
2026-05-05 18:20 -37.63270 144.83138 2900 ft 131 kts 346°
2026-05-05 18:20 -37.62373 144.82902 3527 ft 133 kts 347°
2026-05-05 18:20 -37.61459 144.82696 4146 ft 135 kts 348°
2026-05-05 18:21 -37.60528 144.82511 4770 ft 136 kts 349°
2026-05-05 18:21 -37.59592 144.82339 5385 ft 137 kts 349°
2026-05-05 18:21 -37.58650 144.82343 5981 ft 140 kts 21°
2026-05-05 18:21 -37.57814 144.82976 6603 ft 139 kts 28°
2026-05-05 18:22 -37.56917 144.83602 6993 ft 158 kts 26°
2026-05-05 18:22 -37.55859 144.84294 7244 ft 181 kts 25°
2026-05-05 18:22 -37.54690 144.85024 7539 ft 199 kts 24°
2026-05-05 18:22 -37.53377 144.85819 7713 ft 219 kts 24°
2026-05-05 18:23 -37.51976 144.86666 8030 ft 227 kts 24°
2026-05-05 18:23 -37.50572 144.87581 8418 ft 228 kts 34°
2026-05-05 18:23 -37.49630 144.89195 8738 ft 234 kts 66°
2026-05-05 18:23 -37.49033 144.91112 9106 ft 236 kts 68°
2026-05-05 18:24 -37.48430 144.93041 9475 ft 236 kts 66°
2026-05-05 18:24 -37.47753 144.94937 9717 ft 238 kts 63°
2026-05-05 18:24 -37.46995 144.96781 10106 ft 238 kts 60°
2026-05-05 18:24 -37.46204 144.98598 10464 ft 239 kts 60°
2026-05-05 18:25 -37.45418 145.00422 10937 ft 234 kts 60°
2026-05-05 18:25 -37.44892 145.01636 11037 ft 241 kts 60°
2026-05-05 18:25 -37.43809 145.04138 11429 ft 242 kts 60°
2026-05-05 18:25 -37.43009 145.06006 11741 ft 243 kts 60°
2026-05-05 18:26 -37.42211 145.07884 12055 ft 244 kts 60°
2026-05-05 18:26 -37.41411 145.09774 12366 ft 245 kts 61°
2026-05-05 18:26 -37.40610 145.11667 12630 ft 246 kts 61°
2026-05-05 18:26 -37.39869 145.13600 12823 ft 246 kts 73°
2026-05-05 18:27 -37.39850 145.15748 13027 ft 249 kts 97°
2026-05-05 18:27 -37.39770 145.17895 13226 ft 249 kts 69°
2026-05-05 18:27 -37.38796 145.19664 13399 ft 248 kts 45°
2026-05-05 18:27 -37.37576 145.21202 13406 ft 254 kts 45°
2026-05-05 18:28 -37.36935 145.25498 13582 ft 264 kts 103°
2026-05-05 18:28 -37.37363 145.27743 13741 ft 265 kts 102°
2026-05-05 18:28 -37.37695 145.30027 13904 ft 266 kts 97°
2026-05-05 18:29 -37.37859 145.32343 14083 ft 266 kts 92°
2026-05-05 18:29 -37.37929 145.34667 14245 ft 266 kts 91°
2026-05-05 18:29 -37.37985 145.36998 14378 ft 267 kts 91°
2026-05-05 18:29 -37.38049 145.39326 14591 ft 263 kts 92°
2026-05-05 18:30 -37.38135 145.41572 15095 ft 253 kts 92°
2026-05-05 18:30 -37.38223 145.43754 15595 ft 247 kts 92°
2026-05-05 18:30 -37.38311 145.45888 16096 ft 242 kts 92°
2026-05-05 18:30 -37.38396 145.47983 16595 ft 239 kts 92°
2026-05-05 18:31 -37.38480 145.50066 17096 ft 238 kts 92°
2026-05-05 18:31 -37.38564 145.52138 17598 ft 236 kts 92°
2026-05-05 18:31 -37.38647 145.54184 18097 ft 234 kts 92°
2026-05-05 18:31 -37.38731 145.56244 18428 ft 240 kts 92°
2026-05-05 18:32 -37.38815 145.58387 18681 ft 251 kts 92°
2026-05-05 18:32 -37.38907 145.60613 18933 ft 258 kts 92°
2026-05-05 18:32 -37.38993 145.62777 19087 ft 268 kts 92°
2026-05-05 18:32 -37.39086 145.65173 19138 ft 280 kts 92°
2026-05-05 18:33 -37.39183 145.67663 19162 ft 290 kts 92°
2026-05-05 18:33 -37.39283 145.70230 19173 ft 298 kts 92°
2026-05-05 18:33 -37.39384 145.72861 19180 ft 304 kts 92°
2026-05-05 18:33 -37.39487 145.75538 19182 ft 307 kts 92°
2026-05-05 18:34 -37.39594 145.78192 19181 ft 303 kts 92°
2026-05-05 18:34 -37.39691 145.80859 19180 ft 308 kts 92°
2026-05-05 18:34 -37.39794 145.83564 19162 ft 310 kts 92°
2026-05-05 18:34 -37.39897 145.86247 19099 ft 303 kts 92°
2026-05-05 18:35 -37.39996 145.88871 18998 ft 300 kts 92°
2026-05-05 18:35 -37.40090 145.91485 18906 ft 297 kts 92°
2026-05-05 18:35 -37.40185 145.94042 19077 ft 284 kts 92°
2026-05-05 18:35 -37.40274 145.96470 19256 ft 276 kts 92°
2026-05-05 18:36 -37.40361 145.98875 19243 ft 275 kts 92°
2026-05-05 18:36 -37.40449 146.01274 19237 ft 274 kts 92°
2026-05-05 18:36 -37.40536 146.03665 19244 ft 274 kts 92°
2026-05-05 18:36 -37.40622 146.06057 19251 ft 273 kts 92°
2026-05-05 18:37 -37.40709 146.08442 19256 ft 273 kts 92°
2026-05-05 18:37 -37.40793 146.10826 19261 ft 273 kts 92°
2026-05-05 18:37 -37.40875 146.13206 19280 ft 272 kts 92°
2026-05-05 18:37 -37.40959 146.15582 19285 ft 272 kts 92°
2026-05-05 18:38 -37.41042 146.17958 19279 ft 272 kts 92°
2026-05-05 18:38 -37.41126 146.20348 19205 ft 275 kts 92°
2026-05-05 18:38 -37.41209 146.22748 19192 ft 275 kts 92°
2026-05-05 18:38 -37.41291 146.25147 19177 ft 274 kts 92°
2026-05-05 18:39 -37.41373 146.27543 19176 ft 274 kts 92°
2026-05-05 18:39 -37.41454 146.29941 19152 ft 275 kts 92°
2026-05-05 18:39 -37.41536 146.32338 19145 ft 275 kts 92°
2026-05-05 18:39 -37.41617 146.34737 19150 ft 275 kts 92°
2026-05-05 18:40 -37.41696 146.37135 19154 ft 274 kts 92°
2026-05-05 18:40 -37.41776 146.39528 19160 ft 273 kts 92°
2026-05-05 18:40 -37.41853 146.41899 19162 ft 273 kts 92°
2026-05-05 18:40 -37.41933 146.44286 19163 ft 273 kts 92°
2026-05-05 18:41 -37.42009 146.46667 19164 ft 272 kts 92°
2026-05-05 18:41 -37.42088 146.49042 19172 ft 272 kts 92°
2026-05-05 18:41 -37.42164 146.51422 19175 ft 272 kts 92°
2026-05-05 18:41 -37.42239 146.53797 19174 ft 272 kts 92°
2026-05-05 18:42 -37.42314 146.56174 19180 ft 272 kts 92°
2026-05-05 18:42 -37.42389 146.58544 19199 ft 271 kts 92°
2026-05-05 18:42 -37.42464 146.60860 19118 ft 274 kts 92°
2026-05-05 18:42 -37.42537 146.63277 19111 ft 273 kts 92°
2026-05-05 18:43 -37.42610 146.65669 19120 ft 273 kts 92°
2026-05-05 18:43 -37.42683 146.68051 19134 ft 273 kts 92°
2026-05-05 18:43 -37.42758 146.70432 19141 ft 273 kts 92°
2026-05-05 18:43 -37.42829 146.72811 19146 ft 272 kts 92°
2026-05-05 18:44 -37.42900 146.75188 19147 ft 272 kts 92°
2026-05-05 18:44 -37.42971 146.77567 19153 ft 272 kts 92°
2026-05-05 18:44 -37.43042 146.79948 19157 ft 272 kts 92°
2026-05-05 18:44 -37.43114 146.82324 19160 ft 272 kts 92°
2026-05-05 18:45 -37.43185 146.84700 19158 ft 272 kts 92°
2026-05-05 18:45 -37.43252 146.87074 19158 ft 271 kts 92°
2026-05-05 18:45 -37.43321 146.89446 19161 ft 271 kts 92°
2026-05-05 18:45 -37.43389 146.91817 19164 ft 271 kts 92°
2026-05-05 18:46 -37.43435 146.93387 19170 ft 271 kts 92°
2026-05-05 18:46 -37.43518 146.96373 19176 ft 271 kts 91°
2026-05-05 18:46 -37.43585 146.98746 19176 ft 271 kts 92°
2026-05-05 18:46 -37.43652 147.01118 19182 ft 271 kts 92°
2026-05-05 18:47 -37.43717 147.03495 19106 ft 274 kts 92°
2026-05-05 18:47 -37.43782 147.05888 19110 ft 273 kts 92°
2026-05-05 18:47 -37.43847 147.08249 19118 ft 273 kts 92°
2026-05-05 18:47 -37.43912 147.10634 19124 ft 273 kts 92°
2026-05-05 18:48 -37.43976 147.13021 19134 ft 272 kts 91°
2026-05-05 18:48 -37.44041 147.15401 19141 ft 272 kts 92°
2026-05-05 18:48 -37.44104 147.17779 19154 ft 272 kts 92°
2026-05-05 18:48 -37.44165 147.20154 19161 ft 271 kts 92°
2026-05-05 18:49 -37.44227 147.22525 19163 ft 271 kts 92°
2026-05-05 18:49 -37.44289 147.24894 19160 ft 271 kts 92°
2026-05-05 18:49 -37.44351 147.27264 19165 ft 271 kts 92°
2026-05-05 18:49 -37.44412 147.29632 19171 ft 271 kts 92°
2026-05-05 18:50 -37.44470 147.31981 19176 ft 271 kts 92°
2026-05-05 18:50 -37.44530 147.34350 19181 ft 271 kts 91°
2026-05-05 18:50 -37.44589 147.36720 19184 ft 271 kts 92°
2026-05-05 18:50 -37.44643 147.38935 19110 ft 274 kts 92°
2026-05-05 18:51 -37.44702 147.41289 19126 ft 272 kts 91°
2026-05-05 18:51 -37.44759 147.43661 19147 ft 271 kts 91°
2026-05-05 18:51 -37.44798 147.45261 19150 ft 271 kts 91°
2026-05-05 18:51 -37.44875 147.48397 19153 ft 271 kts 91°
2026-05-05 18:52 -37.44910 147.49996 19156 ft 270 kts 91°
2026-05-05 18:52 -37.44732 147.52342 19156 ft 269 kts 79°
2026-05-05 18:52 -37.44333 147.54643 19159 ft 269 kts 76°
2026-05-05 18:52 -37.43928 147.56795 19160 ft 269 kts 76°
2026-05-05 18:53 -37.43522 147.59094 19161 ft 269 kts 78°
2026-05-05 18:53 -37.43159 147.61409 19170 ft 270 kts 79°
2026-05-05 18:53 -37.42802 147.63722 19177 ft 270 kts 78°
2026-05-05 18:53 -37.42444 147.66042 19183 ft 270 kts 79°
2026-05-05 18:54 -37.42082 147.68359 19195 ft 270 kts 79°
2026-05-05 18:54 -37.41720 147.70677 19199 ft 270 kts 79°
2026-05-05 18:54 -37.41358 147.72998 19205 ft 270 kts 78°
2026-05-05 18:54 -37.40997 147.75323 19138 ft 273 kts 78°
2026-05-05 18:55 -37.40628 147.77675 19089 ft 275 kts 79°
2026-05-05 18:55 -37.40262 147.80013 19162 ft 271 kts 79°
2026-05-05 18:55 -37.39919 147.82193 19167 ft 271 kts 79°
2026-05-05 18:55 -37.39554 147.84520 19169 ft 271 kts 78°
2026-05-05 18:56 -37.39187 147.86847 19171 ft 271 kts 78°
2026-05-05 18:56 -37.38829 147.89119 19173 ft 270 kts 79°
2026-05-05 18:56 -37.38465 147.91438 19175 ft 270 kts 78°
2026-05-05 18:56 -37.38105 147.93713 19181 ft 270 kts 78°
2026-05-05 18:57 -37.37739 147.96031 19180 ft 271 kts 79°
2026-05-05 18:57 -37.37372 147.98352 19178 ft 270 kts 78°
2026-05-05 18:57 -37.37010 148.00636 19179 ft 270 kts 78°
2026-05-05 18:57 -37.36638 148.02972 19184 ft 270 kts 79°
2026-05-05 18:58 -37.36271 148.05292 19185 ft 271 kts 79°
2026-05-05 18:58 -37.35908 148.07569 19198 ft 270 kts 78°
2026-05-05 18:58 -37.35546 148.09859 19197 ft 271 kts 79°
2026-05-05 18:58 -37.35169 148.12227 19102 ft 274 kts 79°
2026-05-05 18:59 -37.34797 148.14543 19133 ft 272 kts 78°
2026-05-05 18:59 -37.34450 148.16700 19136 ft 272 kts 78°
2026-05-05 18:59 -37.34080 148.19027 19140 ft 272 kts 78°
2026-05-05 18:59 -37.33709 148.21339 19138 ft 271 kts 78°
2026-05-05 19:00 -37.33344 148.23606 19143 ft 271 kts 78°
2026-05-05 19:00 -37.32978 148.25873 19145 ft 270 kts 79°
2026-05-05 19:00 -37.32608 148.28189 19147 ft 270 kts 78°
2026-05-05 19:00 -37.32234 148.30505 19151 ft 270 kts 78°
2026-05-05 19:01 -37.31860 148.32816 19155 ft 270 kts 79°
2026-05-05 19:01 -37.31486 148.35131 19155 ft 270 kts 78°
2026-05-05 19:01 -37.31112 148.37443 19153 ft 270 kts 78°
2026-05-05 19:01 -37.30737 148.39758 19159 ft 270 kts 79°
2026-05-05 19:02 -37.30363 148.42069 19165 ft 270 kts 78°
2026-05-05 19:02 -37.29986 148.44382 19170 ft 270 kts 78°
2026-05-05 19:02 -37.29610 148.46691 19171 ft 270 kts 78°
2026-05-05 19:02 -37.29232 148.49006 19172 ft 270 kts 78°
2026-05-05 19:03 -37.28856 148.51317 19203 ft 269 kts 78°
2026-05-05 19:03 -37.28484 148.53596 19192 ft 270 kts 78°
2026-05-05 19:03 -37.28103 148.55922 19137 ft 272 kts 78°
2026-05-05 19:03 -37.27723 148.58248 19141 ft 272 kts 78°
2026-05-05 19:04 -37.27341 148.60570 19144 ft 271 kts 78°
2026-05-05 19:04 -37.26963 148.62886 19144 ft 271 kts 78°
2026-05-05 19:04 -37.26579 148.65216 18930 ft 278 kts 78°
2026-05-05 19:04 -37.26174 148.67667 18609 ft 288 kts 78°
2026-05-05 19:05 -37.25771 148.70111 18619 ft 284 kts 78°
2026-05-05 19:05 -37.25366 148.72572 18299 ft 292 kts 78°
2026-05-05 19:05 -37.24955 148.75079 17963 ft 291 kts 79°
2026-05-05 19:05 -37.24546 148.77567 17626 ft 292 kts 78°
2026-05-05 19:06 -37.24125 148.80077 17292 ft 296 kts 78°
2026-05-05 19:06 -37.23707 148.82614 16942 ft 297 kts 78°
2026-05-05 19:06 -37.23286 148.85158 16597 ft 298 kts 78°
2026-05-05 19:06 -37.22860 148.87705 16248 ft 299 kts 78°
2026-05-05 19:07 -37.22433 148.90256 15899 ft 299 kts 78°
2026-05-05 19:07 -37.22004 148.92810 15543 ft 299 kts 78°
2026-05-05 19:07 -37.21584 148.95326 15206 ft 299 kts 78°
2026-05-05 19:07 -37.21150 148.97920 14841 ft 300 kts 78°
2026-05-05 19:08 -37.20731 149.00439 14500 ft 297 kts 78°
2026-05-05 19:08 -37.20304 149.02993 14158 ft 294 kts 78°
2026-05-05 19:08 -37.19888 149.05446 13823 ft 290 kts 78°
2026-05-05 19:08 -37.19474 149.07915 13484 ft 288 kts 78°
2026-05-05 19:09 -37.19060 149.10366 13148 ft 286 kts 78°
2026-05-05 19:09 -37.18693 149.12546 12854 ft 284 kts 78°
2026-05-05 19:09 -37.18282 149.14970 12520 ft 284 kts 78°
2026-05-05 19:09 -37.17871 149.17396 12194 ft 287 kts 78°
2026-05-05 19:10 -37.17460 149.19845 11858 ft 283 kts 78°
2026-05-05 19:10 -37.17076 149.22149 11542 ft 264 kts 78°
2026-05-05 19:10 -37.16707 149.24394 11236 ft 262 kts 78°
2026-05-05 19:10 -37.16338 149.26621 10930 ft 260 kts 78°
2026-05-05 19:11 -37.15963 149.28835 10627 ft 261 kts 78°
2026-05-05 19:11 -37.15582 149.31060 10327 ft 261 kts 78°
2026-05-05 19:11 -37.15202 149.33283 10029 ft 261 kts 78°
2026-05-05 19:11 -37.14823 149.35509 9723 ft 262 kts 78°
2026-05-05 19:12 -37.14443 149.37741 9416 ft 261 kts 78°
2026-05-05 19:12 -37.14058 149.39971 9111 ft 262 kts 77°
2026-05-05 19:12 -37.13672 149.42197 8805 ft 261 kts 77°
2026-05-05 19:12 -37.13292 149.44410 8502 ft 258 kts 78°
2026-05-05 19:13 -37.12921 149.46580 8205 ft 253 kts 78°
2026-05-05 19:13 -37.12550 149.48742 7913 ft 248 kts 77°
2026-05-05 19:13 -37.12188 149.50844 7628 ft 245 kts 77°
2026-05-05 19:13 -37.11830 149.52913 7342 ft 238 kts 77°
2026-05-05 19:14 -37.11503 149.54820 7078 ft 211 kts 77°
2026-05-05 19:14 -37.11216 149.56482 6843 ft 192 kts 77°
2026-05-05 19:14 -37.10947 149.58054 6623 ft 182 kts 78°
2026-05-05 19:14 -37.10689 149.59577 6427 ft 179 kts 78°
2026-05-05 19:15 -37.10420 149.61093 6223 ft 178 kts 77°
2026-05-05 19:15 -37.10152 149.62602 6019 ft 176 kts 77°
2026-05-05 19:15 -37.09890 149.64099 5819 ft 178 kts 77°
2026-05-05 19:15 -37.09608 149.65657 5612 ft 190 kts 76°
2026-05-05 19:16 -37.09328 149.67224 5403 ft 200 kts 77°
2026-05-05 19:16 -37.09033 149.68938 5173 ft 201 kts 78°
2026-05-05 19:16 -37.08743 149.70654 4940 ft 202 kts 78°
2026-05-05 19:16 -37.08462 149.72324 4707 ft 193 kts 78°
2026-05-05 19:17 -37.08180 149.73975 4481 ft 195 kts 78°
2026-05-05 19:17 -37.07797 149.75603 4196 ft 195 kts 59°
2026-05-05 19:17 -37.06837 149.76760 3938 ft 188 kts 35°
2026-05-05 19:17 -37.05754 149.77665 3677 ft 187 kts 31°
2026-05-05 19:18 -37.04654 149.78529 3404 ft 186 kts 31°
2026-05-05 19:18 -37.03558 149.79393 3133 ft 186 kts 31°
2026-05-05 19:18 -37.02469 149.80257 2885 ft 186 kts 32°
2026-05-05 19:18 -37.01411 149.81116 2667 ft 173 kts 32°
2026-05-05 19:19 -37.00440 149.81917 2512 ft 165 kts 33°
2026-05-05 19:19 -36.99480 149.82727 2263 ft 166 kts 33°
2026-05-05 19:19 -36.98594 149.83473 2046 ft 140 kts 33°
2026-05-05 19:19 -36.97834 149.84109 1807 ft 126 kts 33°
2026-05-05 19:20 -36.97121 149.84707 1600 ft 121 kts 33°
2026-05-05 19:20 -36.96426 149.85296 1415 ft 121 kts 33°
2026-05-05 19:20 -36.95725 149.85884 1230 ft 121 kts 33°
2026-05-05 19:20 -36.95030 149.86468 1051 ft 119 kts 33°
2026-05-05 19:21 -36.94342 149.87045 872 ft 119 kts 33°
2026-05-05 19:21 -36.93666 149.87614 679 ft 119 kts 33°
2026-05-05 19:21 -36.92966 149.88222 569 ft 126 kts 35°
2026-05-05 19:21 -36.92267 149.88823 362 ft 120 kts 34°
2026-05-05 19:22 -36.91605 149.89381 121 ft 110 kts 34°
2026-05-05 19:22 -36.90991 149.89904 27 ft 100 kts 32°
2026-05-05 19:22 -36.90669 149.90174 14 ft 32 kts 33°
2026-05-05 19:22 -36.90574 149.90266 15 ft 4 kts 63°
2026-05-05 19:23 -36.90570 149.90262 15 ft 2 kts 274°
2026-05-05 19:23 -36.90682 149.90162 13 ft 30 kts 213°
2026-05-05 19:23 -36.90786 149.90082 12 ft 12 kts 211°
2026-05-05 19:23 -36.90824 149.90054 12 ft 1 kts 209°
2026-05-05 19:24 -36.90841 149.90047 13 ft 3 kts 180°
2026-05-05 19:24 -36.90871 149.90062 13 ft 7 kts 141°
2026-05-05 19:24 -36.90904 149.90147 13 ft 9 kts 84°
2026-05-05 19:24 -36.90895 149.90177 13 ft 8 kts 49°
2026-05-05 19:25 -36.90901 149.90189 13 ft 4 kts 151°
2026-05-05 19:25 -36.90914 149.90173 13 ft 4 kts 237°
2026-05-05 19:25 -36.90916 149.90168 13 ft 0 kts 240°